This is the latest recevied weather packets stored in our database for station/object KK4KTV-13. If no packets are shown the sender has not sent any weather packets the latest 10 day(s).
| Time | Temp. | Humidity | Pressure | Rain* | Wind** | Luminosity | Snow |
|---|---|---|---|---|---|---|---|
| 1777567101 | 14.44° C | 53% | 1015.7 hPa | 0 mm | - | 762 W/m² | - |
| 1777566798 | 14.44° C | 50% | 1015.7 hPa | 0 mm | - | 745 W/m² | - |
| 1777566496 | 14.44° C | 50% | 1016 hPa | 0 mm | - | 742 W/m² | - |
| 1777566193 | 14.44° C | 49% | 1015.9 hPa | 0 mm | - | 731 W/m² | - |
| 1777565889 | 14.44° C | 48% | 1015.7 hPa | 0 mm | - | 727 W/m² | - |
| 1777565585 | 14.44° C | 45% | 1015.8 hPa | 0 mm | - | 723 W/m² | - |
| 1777565282 | 14.44° C | 47% | 1015.8 hPa | 0 mm | - | 715 W/m² | - |
| 1777564977 | 14.44° C | 50% | 1016 hPa | 0 mm | - | 711 W/m² | - |
| 1777564673 | 14.44° C | 48% | 1015.9 hPa | 0 mm | - | 704 W/m² | - |
| 1777564368 | 13.89° C | 49% | 1016.1 hPa | 0 mm | - | 697 W/m² | - |
| 1777564065 | 13.89° C | 47% | 1015.9 hPa | 0 mm | - | 689 W/m² | - |
| 1777563761 | 13.89° C | 45% | 1016.1 hPa | 0 mm | - | 688 W/m² | - |
| 1777563458 | 13.33° C | 57% | 1016 hPa | 0 mm | - | 675 W/m² | - |
| 1777563151 | 13.33° C | 52% | 1016.1 hPa | 0 mm | - | 703 W/m² | - |
| 1777562848 | 12.78° C | 54% | 1016.2 hPa | 0 mm | - | 699 W/m² | - |
| 1777562545 | 13.33° C | 56% | 1016.1 hPa | 0 mm | - | 691 W/m² | - |
| 1777562243 | 13.33° C | 58% | 1016 hPa | 0 mm | - | 655 W/m² | - |
| 1777561940 | 12.78° C | 55% | 1015.8 hPa | 0 mm | - | 384 W/m² | - |
| 1777561638 | 13.33° C | 54% | 1015.9 hPa | 0 mm | - | 640 W/m² | - |
| 1777561334 | 13.33° C | 56% | 1015.8 hPa | 0 mm | - | 627 W/m² | - |
| 1777561034 | 12.78° C | 56% | 1016.1 hPa | 0 mm | - | 610 W/m² | - |
| 1777560729 | 12.78° C | 56% | 1015.9 hPa | 0 mm | - | 601 W/m² | - |
| 1777560426 | 12.78° C | 58% | 1015.8 hPa | 0 mm | - | 581 W/m² | - |
| 1777560124 | 12.78° C | 59% | 1015.8 hPa | 0 mm | - | 569 W/m² | - |
| 1777559821 | 12.78° C | 58% | 1015.7 hPa | 0 mm | - | 557 W/m² | - |
* Rain latest hour (hover to see other rain measurements)
** Current wind speed in m/s (hover to see current wind gust speed)